Location: ?ern� Novina
(50.6762°N, 14.8696°E)
Time: 12:19:59
(UTC+00:00)

USA 234 - Pass Details

Date: 03 March 2021
Orbit: 1102 x 1105 km, 123.0° (Epoch: 16 April)

Event Time Altitude Azimuth Distance (km) Brightness Sun altitude
Exits shadow 17:52:36 11° 71° (ENE) 2,855 4.9 -11.4°
Maximum altitude 17:58:01 32° 131° (SE) 1,790 4.0 -12.3°
Drops below altitude 10° 18:03:44 10° 192° (SSW) 2,954 5.6 -13.2°
Sets 18:06:31 0° 202° (SSW) 3,909 6.4 -13.6°
